Tracking 22454 objects as of 5-Mar-2021
HD Live streaming from Space Station
objects crossing your sky now

DELTA 1 DEB

Track DELTA 1 DEB now!
10-day predictions


NORAD ID: 21446
Int'l Code: 1975-052EE
Perigee: 1,094.4 km
Apogee: 1,672.7 km
Inclination: 99.7 °
Period: 113.3 minutes
Semi major axis: 7754 km
RCS: 0.0507 m2 (small)
Launch date: June 12, 1975
Source: United States (US)
Launch site: AIR FORCE WESTERN TEST RANGE (AFWTR)

Note: This is SATELLITE DEBRIS
aabbcc
Your satellite tracking list
Your tracking list is empty




NASA's NSSDC Master Catalog

Two Line Element Set (TLE):
1 21446U 75052EE  21063.23409074  .00000133  00000-0  63553-3 0  9999
2 21446  99.6834 215.7514 0372883 272.4059 213.2696 12.71364805384015
Source of the keplerian elements: AFSPC